Location: Cartignies
(50.0929°N, 3.8447°E)
Time: 14:42:47
(UTC+00:00)

Cosmos 2056 Rocket - Pass Details

Date: 12 January 2026
Orbit: 739 x 795 km, 74.0° (Epoch: 16 February)

Event Time Altitude Azimuth Distance (km) Brightness Sun altitude
Rises 18:05:13 0° 213° (SSW) 3,193 7.4 -18.3°
Reaches altitude 10° 18:07:36 10° 217° (SW) 2,265 6.6 -18.6°
Maximum altitude 18:12:41 61° 297° (WNW) 845 3.9 -19.4°
Enters shadow 18:16:57 15° 16° (NNE) 1,961 5.4 -20.1°
